Location: American Medical Response
(33.3472°N, 96.5511°W)
Time: 11:31:17
(UTC+00:00)

Cosmos 1805 Rocket - Pass Details

Date: 03 July 2022
Orbit: 605 x 629 km, 82.5° (Epoch: 10 August)

Event Time Altitude Azimuth Distance (km) Brightness Sun altitude
Exits shadow 08:43:59 10° 124° (SE) 2,003 6.2 -25.3°
Reaches altitude 10° 08:44:02 10° 124° (ESE) 1,992 6.2 -25.3°
Maximum altitude 08:46:38 16° 87° (E) 1,652 6.1 -25.0°
Drops below altitude 10° 08:49:15 10° 51° (NE) 1,992 7.1 -24.7°
Sets 08:52:14 0° 29° (NNE) 2,898 8.4 -24.4°
